This is the latest recevied weather packets stored in our database for station/object W0AKO. If no packets are shown the sender has not sent any weather packets the latest 10 day(s).
| Time | Temp. | Humidity | Pressure | Rain* | Wind** | Luminosity | Snow |
|---|---|---|---|---|---|---|---|
| 1777772930 | 27.22° C | 10% | 1013.4 hPa | 0 mm | - | 23 W/m² | - |
| 1777772629 | 27.22° C | 10% | 1013.2 hPa | 0 mm | - | 30 W/m² | - |
| 1777772326 | 27.22° C | 10% | 1013.8 hPa | 0 mm | - | 40 W/m² | - |
| 1777772023 | 27.78° C | 10% | 1013 hPa | 0 mm | - | 47 W/m² | - |
| 1777771720 | 27.78° C | 10% | 1013.2 hPa | 0 mm | - | 49 W/m² | - |
| 1777771418 | 27.78° C | 10% | 1013.4 hPa | 0 mm | - | 53 W/m² | - |
| 1777771114 | 27.78° C | 10% | 1013.6 hPa | 0 mm | - | 55 W/m² | - |
| 1777770811 | 27.78° C | 10% | 1013.8 hPa | 0 mm | - | 53 W/m² | - |
| 1777770507 | 28.33° C | 10% | 1013.3 hPa | 0 mm | - | 48 W/m² | - |
| 1777770205 | 28.33° C | 10% | 1013.4 hPa | 0 mm | - | 44 W/m² | - |
| 1777769901 | 28.33° C | 10% | 1013.2 hPa | 0 mm | - | 43 W/m² | - |
| 1777769599 | 28.89° C | 10% | 1013.2 hPa | 0 mm | - | 49 W/m² | - |
| 1777769295 | 29.44° C | 10% | 1013.4 hPa | 0 mm | - | 79 W/m² | - |
| 1777768993 | 29.44° C | 10% | 1013.2 hPa | 0 mm | - | 156 W/m² | - |
| 1777768690 | 29.44° C | 10% | 1013.4 hPa | 0 mm | - | 150 W/m² | - |
| 1777768387 | 29.44° C | 10% | 1013.3 hPa | 0 mm | - | 196 W/m² | - |
| 1777768084 | 30.56° C | 10% | 1013.4 hPa | 0 mm | - | 172 W/m² | - |
| 1777767781 | 30° C | 10% | 1013.6 hPa | 0 mm | - | 222 W/m² | - |
| 1777767477 | 30.56° C | 10% | 1013.4 hPa | 0 mm | - | 198 W/m² | - |
| 1777767174 | 31.67° C | 10% | 1013.4 hPa | 0 mm | - | 275 W/m² | - |
| 1777766871 | 31.67° C | 10% | 1013.5 hPa | 0 mm | - | 255 W/m² | - |
| 1777766568 | 31.67° C | 10% | 1013.5 hPa | 0 mm | - | 259 W/m² | - |
| 1777766265 | 31.11° C | 10% | 1013.2 hPa | 0 mm | - | 287 W/m² | - |
| 1777765963 | 30.56° C | 10% | 1013.5 hPa | 0 mm | - | 231 W/m² | - |
| 1777765659 | 30.56° C | 10% | 1013.3 hPa | 0 mm | - | 309 W/m² | - |
* Rain latest hour (hover to see other rain measurements)
** Current wind speed in m/s (hover to see current wind gust speed)